OK4PZ-4 Weather Reports


Display with metric or nautical units.
time (UTC)temp
F
wind
direction
speed
MPH
gust
MPH
rain 1hr
in
rain 24hr
in
rain mn
in
humidity
%
barometer
mb
20260905230022 64 228 3.0 7.0 0.00 0.00 0.00 63 1021.6
20260905215423 65 272 4.0 7.0 0.00 0.00 0.00 61 1021.2
20260905205216 65 232 1.0 3.0 0.00 0.00 0.00 66 1020.8
20260905204823 65 288 2.0 2.0 0.00 0.00 0.00 66 1020.8
20260905194617 67 270 1.0 3.0 0.00 0.00 0.00 63 1019.9
20260905194225 67 225 2.0 4.0 0.00 0.00 0.00 64 1019.9
20260905184018 68 225 0.0 3.0 0.00 0.00 0.00 58 1019.2
20260905173419 73 216 3.0 7.0 0.00 0.00 0.00 51 1018.1
20260905162820 76 248 7.0 12.0 0.00 0.00 0.00 44 1017.5
20260905152220 77 257 8.0 13.0 0.00 0.00 0.00 45 1017.4
20260905142014 76 259 8.0 13.0 0.00 0.00 0.00 47 1017.4
20260905141621 75 262 10.0 14.0 0.00 0.00 0.00 47 1017.3
20260905131415 79 212 9.0 13.0 0.00 0.00 0.00 45 1017.6
20260905120816 78 316 7.0 13.0 0.00 0.00 0.00 47 1018.1
20260905110217 74 234 12.0 13.0 0.00 0.00 0.00 56 1018.2
20260905095617 73 238 6.0 13.0 0.00 0.00 0.00 66 1018.1
20260905085411 73 274 3.0 6.0 0.00 0.00 0.00 100 1018.2
20260905085018 73 254 5.0 7.0 0.00 0.00 0.00 100 1018.1
20260905074812 63 225 0.0 3.0 0.00 0.00 0.00 100 1017.8
20260905074420 63 117 1.0 1.0 0.00 0.00 0.00 100 1017.8
20260905064449 60 184 0.0 2.0 0.00 0.00 0.03 100 1016.9
20260905064335 60 184 0.0 2.0 0.00 0.00 0.03 100 1016.9
20260905063942 60 276 1.0 2.0 0.00 0.00 0.02 100 1017.0
20260905053736 59 270 3.0 3.0 0.00 0.00 0.00 100 1017.3
20260905053343 59 130 0.0 0.0 0.00 0.00 0.00 100 1017.0
20260905053339 59 129 0.0 0.0 0.00 0.00 0.00 100 1016.9
20260905043115 63 147 2.0 6.0 0.00 0.00 0.07 100 1016.6
20260905032516 65 33 5.0 5.0 0.00 0.00 0.04 100 1015.0
20260905021917 67 164 0.0 4.0 0.00 0.00 0.01 86 1014.2
20260905011710 72 50 6.0 15.0 0.00 0.00 0.00 66 1013.4
20260905011317 74 43 7.0 15.0 0.00 0.00 0.00 62 1012.9
20260905001111 79 270 6.0 8.0 0.00 0.00 0.00 50 1011.4
20260905000718 79 270 5.0 10.0 0.00 0.00 0.00 50 1011.3